KB6OQJ Weather Reports


Display with metric or nautical units.
time (UTC)temp
F
wind
direction
speed
MPH
gust
MPH
rain 1hr
in
rain 24hr
in
rain mn
in
humidity
%
barometer
mb
20260905061004 61 290 0.0 0.0 0.00 0.00 0.00 77 848.8
20260905060004 61 290 0.0 0.0 0.00 0.00 0.00 77 848.8
20260905055004 62 290 0.0 0.0 0.00 0.00 0.00 77 848.8
20260905054004 62 290 0.0 0.0 0.00 0.00 0.00 77 848.8
20260905053004 62 290 0.0 0.0 0.00 0.00 0.00 77 848.8
20260905051004 63 290 0.0 0.0 0.00 0.00 0.00 77 848.8
20260905050004 63 290 0.0 0.0 0.00 0.00 0.00 77 848.8
20260905045004 64 290 0.0 0.0 0.00 0.00 0.00 77 845.3
20260905043003 65 290 0.0 0.0 0.00 0.00 0.00 76 849.7
20260905042004 65 290 0.0 0.0 0.00 0.00 0.00 76 829.5
20260905041004 65 302 0.0 0.0 0.00 0.00 0.00 76 845.0
20260905040003 66 290 0.0 0.0 0.00 0.00 0.00 76 845.0
20260905035003 66 286 0.0 0.0 0.00 0.00 0.00 75 845.0
20260905033004 67 283 0.0 5.0 0.00 0.00 0.00 74 845.0
20260905032004 68 288 2.0 9.0 0.00 0.00 0.00 72 854.6
20260905031004 69 306 2.0 12.0 0.00 0.00 0.00 71 852.2
20260905030004 69 287 2.0 10.0 0.00 0.00 0.00 69 852.3
20260905025003 70 317 2.0 12.0 0.00 0.00 0.00 68 852.4
20260905024003 70 300 0.0 3.0 0.00 0.00 0.00 66 850.8
20260905023003 71 305 0.0 10.0 0.00 0.00 0.00 65 848.6
20260905021004 72 304 3.0 12.0 0.00 0.00 0.00 64 848.6
20260905020004 73 309 1.0 10.0 0.00 0.00 0.00 64 863.9
20260905015003 74 342 1.0 12.0 0.00 0.00 0.00 63 858.7
20260905014004 74 296 3.0 12.0 0.00 0.00 0.00 63 850.3
20260905013004 75 318 5.0 12.0 0.00 0.00 0.00 62 851.3
20260905012003 76 290 4.0 12.0 0.00 0.00 0.00 62 861.8
20260905011003 76 304 2.0 12.0 0.00 0.00 0.00 61 856.6
20260905010003 77 293 3.0 12.0 0.00 0.00 0.00 60 856.6
20260905005004 78 311 5.0 12.0 0.00 0.00 0.00 59 856.6
20260905004004 78 299 2.0 14.0 0.00 0.00 0.00 57 848.6
20260905003004 80 293 6.0 14.0 0.00 0.00 0.00 56 849.0
20260905000003 83 302 6.0 14.0 0.00 0.00 0.00 52 847.9
20260904235004 83 298 3.0 13.0 0.00 0.00 0.00 51 855.1
20260904234003 84 314 5.0 15.0 0.00 0.00 0.00 50 855.1
20260904233004 84 279 7.0 14.0 0.00 0.00 0.00 49 855.1
20260904232003 84 298 7.0 13.0 0.00 0.00 0.00 49 855.1
20260904231004 84 273 5.0 16.0 0.00 0.00 0.00 49 855.1
20260904230003 84 265 2.0 14.0 0.00 0.00 0.00 49 855.1
20260904225004 83 272 5.0 14.0 0.00 0.00 0.00 49 859.1
20260904224004 83 222 7.0 16.0 0.00 0.00 0.00 49 880.3
20260904223004 84 235 9.0 16.0 0.00 0.00 0.00 49 880.3
20260904222004 84 223 8.0 15.0 0.00 0.00 0.00 47 880.3
20260904221004 85 271 2.0 10.0 0.00 0.00 0.00 47 880.3
20260904184004 78 294 0.0 0.0 0.00 0.00 0.00 52 960.0
20260904183004 77 107 0.0 0.0 0.00 0.00 0.00 54 960.0
20260904182004 77 84 0.0 0.0 0.00 0.00 0.00 55 960.0
20260904181004 76 166 0.0 0.0 0.00 0.00 0.00 58 960.0
20260904180004 75 157 0.0 0.0 0.00 0.00 0.00 61 960.0
20260904175003 74 121 0.0 0.0 0.00 0.00 0.00 62 960.0
20260904174003 73 84 0.0 0.0 0.00 0.00 0.00 63 960.0
20260904163004 67 139 0.0 0.0 0.00 0.00 0.00 76 810.5
20260904162004 66 116 0.0 0.0 0.00 0.00 0.00 77 810.5
20260904161004 65 126 0.0 0.0 0.00 0.00 0.00 77 810.5
20260904160004 64 100 0.0 0.0 0.00 0.00 0.00 77 810.5
20260904154004 62 87 0.0 0.0 0.00 0.00 0.00 76 810.5
20260904153004 62 78 0.0 0.0 0.00 0.00 0.00 75 810.5
20260904152004 61 121 0.0 0.0 0.00 0.00 0.00 74 810.5
20260904151004 61 125 0.0 0.0 0.00 0.00 0.00 72 810.5
20260904150004 60 120 0.0 0.0 0.00 0.00 0.00 71 810.5
20260904144004 59 120 0.0 0.0 0.00 0.00 0.00 68 810.5
20260904143005 59 127 0.0 0.0 0.00 0.00 0.00 67 810.5
20260904142004 59 127 0.0 0.0 0.00 0.00 0.00 66 810.5
20260904141004 58 139 0.0 0.0 0.00 0.00 0.00 66 810.5
20260904140004 58 139 0.0 0.0 0.00 0.00 0.00 67 810.5
20260904134004 58 139 0.0 0.0 0.00 0.00 0.00 67 810.5
20260904133004 58 139 0.0 0.0 0.00 0.00 0.00 67 810.5
20260904132004 58 139 0.0 0.0 0.00 0.00 0.00 67 810.5
20260904131004 58 138 0.0 0.0 0.00 0.00 0.00 67 957.3
20260904130004 58 121 0.0 0.0 0.00 0.00 0.00 67 957.3
20260904125004 58 119 0.0 0.0 0.00 0.00 0.00 68 957.3
20260904123004 57 52 0.0 0.0 0.00 0.00 0.00 69 957.3
20260904122004 57 52 0.0 0.0 0.00 0.00 0.00 69 957.3
20260904121004 57 52 0.0 0.0 0.00 0.00 0.00 70 957.3
20260904120004 57 52 0.0 0.0 0.00 0.00 0.00 70 957.3
20260904115004 57 52 0.0 0.0 0.00 0.00 0.00 71 957.3
20260904114004 57 52 0.0 0.0 0.00 0.00 0.00 71 957.3
20260904113004 57 52 0.0 0.0 0.00 0.00 0.00 72 957.3
20260904112004 57 52 0.0 0.0 0.00 0.00 0.00 73 957.3
20260904111004 57 53 0.0 0.0 0.00 0.00 0.00 73 957.3
20260904110004 58 53 0.0 0.0 0.00 0.00 0.00 73 954.1
20260904105004 58 53 0.0 0.0 0.00 0.00 0.00 73 868.1
20260904104004 58 240 0.0 0.0 0.00 0.00 0.00 73 868.1
20260904103004 58 240 0.0 0.0 0.00 0.00 0.00 73 868.1
20260904102004 59 240 0.0 0.0 0.00 0.00 0.00 74 868.1
20260904101004 59 240 0.0 0.0 0.00 0.00 0.00 74 868.1
20260904094004 59 240 0.0 0.0 0.00 0.00 0.00 73 873.0
20260904093004 60 241 0.0 0.0 0.00 0.00 0.00 74 883.3
20260904092003 60 305 0.0 0.0 0.00 0.00 0.00 74 885.7
20260904091004 60 311 0.0 0.0 0.00 0.00 0.00 74 893.0
20260904090004 60 311 0.0 0.0 0.00 0.00 0.00 73 882.4
20260904085003 61 311 0.0 0.0 0.00 0.00 0.00 73 895.3
20260904084003 60 222 0.0 0.0 0.00 0.00 0.00 73 895.3
20260904082004 61 222 0.0 0.0 0.00 0.00 0.00 73 888.4
20260904080004 60 222 0.0 0.0 0.00 0.00 0.00 73 888.9
20260904074004 60 222 0.0 0.0 0.00 0.00 0.00 72 888.9
20260904073004 60 355 0.0 0.0 0.00 0.00 0.00 72 881.4
20260904072004 60 355 0.0 0.0 0.00 0.00 0.00 72 881.4
20260904070003 60 355 0.0 0.0 0.00 0.00 0.00 72 880.9
20260904065004 60 355 0.0 0.0 0.00 0.00 0.00 72 879.8
20260904064004 60 355 0.0 0.0 0.00 0.00 0.00 72 875.6
20260904063004 60 355 0.0 0.0 0.00 0.00 0.00 72 875.6